EW4849 Weather Reports


time (UTC)temp
C
wind
direction
speed
KPH
gust
KPH
rain 1hr
cm
rain 24hr
cm
rain mn
cm
humidity
%
barometer
mb
20260505181604 21 309 4.8 12.9 0.00 0.00 0.00 56 1002.9
20260505180042 20 221 6.4 14.5 0.00 0.00 0.00 58 1002.8
20260505174538 20 267 6.4 12.9 0.00 0.00 0.00 56 1002.8
20260505173032 20 227 4.8 14.5 0.00 0.00 0.00 59 1002.8
20260505171537 19 243 8.0 14.5 0.00 0.00 0.00 62 1002.7
20260505170026 18 281 4.8 16.1 0.00 0.00 0.00 66 1002.6
20260505164507 18 221 11.3 19.3 0.00 0.00 0.00 66 1002.5
20260505163009 18 247 9.7 17.7 0.00 0.00 0.00 66 1002.4
20260505161552 17 251 8.0 17.7 0.00 0.00 0.00 68 1002.4
20260505153047 17 219 9.7 17.7 0.00 0.00 0.00 70 1002.3
20260505151542 16 216 11.3 17.7 0.00 0.00 0.00 71 1002.1
20260505124512 12 121 3.2 6.4 0.00 0.00 0.00 76 1000.7
20260505123009 13 142 1.6 4.8 0.00 0.00 0.00 76 1000.6
20260505121508 12 87 1.6 4.8 0.00 0.00 0.00 76 1000.5
20260505120106 13 129 3.2 4.8 0.00 0.00 0.00 76 1000.4
20260505114547 13 159 0.0 4.8 0.00 0.00 0.00 75 1000.3
20260505113032 13 202 0.0 4.8 0.00 0.00 0.00 75 1000.3
20260505111534 13 121 1.6 4.8 0.00 0.00 0.00 74 1000.2
20260505101549 13 93 1.6 4.8 0.00 0.00 0.00 69 999.6
20260505100047 14 123 1.6 6.4 0.00 0.00 0.00 68 999.5
20260505094545 14 143 0.0 6.4 0.00 0.00 0.00 68 999.3
20260505093048 15 135 3.2 4.8 0.00 0.00 0.00 68 999.3
20260505091553 14 129 0.0 3.2 0.00 0.00 0.00 70 999.3
20260505090042 14 106 4.8 8.0 0.00 0.00 0.00 71 999.3
20260505084546 15 123 4.8 8.0 0.00 0.00 0.00 71 999.2
20260505083027 15 166 3.2 6.4 0.00 0.00 0.00 68 999.1
20260505081526 15 195 1.6 4.8 0.00 0.00 0.00 68 999.0
20260505080024 15 151 1.6 4.8 0.00 0.00 0.00 66 999.0
20260505074522 16 126 1.6 4.8 0.00 0.00 0.00 64 999.0
20260505073021 16 188 0.0 3.2 0.00 0.00 0.00 62 998.8
20260505071522 16 134 1.6 1.6 0.00 0.00 0.00 59 998.8
20260505070020 16 134 0.0 3.2 0.00 0.00 0.00 56 998.6
20260505064531 17 126 0.0 3.2 0.00 0.00 0.00 54 998.5
20260505063008 17 120 1.6 11.3 0.00 0.00 0.00 54 998.4
20260505061508 16 124 1.6 6.4 0.00 0.00 0.00 58 998.2
20260505060007 17 124 3.2 8.0 0.00 0.00 0.00 54 998.0
20260505054516 16 115 1.6 6.4 0.00 0.00 0.00 60 998.0
20260505053006 16 113 1.6 6.4 0.00 0.00 0.00 59 997.9
20260505051508 16 132 3.2 6.4 0.00 0.00 0.00 62 997.9
20260505041545 18 259 0.0 6.4 0.00 0.00 0.00 53 997.6
20260505040034 18 114 0.0 4.8 0.00 0.00 0.00 51 997.5
20260505034538 20 115 3.2 6.4 0.00 0.00 0.00 47 997.2
20260505033033 20 150 0.0 4.8 0.00 0.00 0.00 46 997.2
20260505031532 21 180 1.6 4.8 0.00 0.00 0.00 43 997.0
20260505030044 22 115 0.0 3.2 0.00 0.00 0.00 40 997.0
20260505024530 24 109 0.0 3.2 0.00 0.00 0.00 35 997.0
20260505023039 25 41 1.6 3.2 0.00 0.00 0.00 32 997.0
20260505021531 25 15 3.2 4.8 0.00 0.00 0.00 31 997.0
20260505020011 25 353 3.2 8.0 0.00 0.00 0.00 35 997.1
20260505014518 25 319 6.4 9.7 0.00 0.00 0.00 29 997.2
20260505013057 26 330 4.8 11.3 0.00 0.00 0.00 30 997.2
20260505011601 26 338 6.4 12.9 0.00 0.00 0.00 33 997.5
20260505010110 26 11 4.8 14.5 0.00 0.00 0.00 33 997.4
20260505004615 26 347 6.4 14.5 0.00 0.00 0.00 30 997.6
20260505003058 26 340 8.0 17.7 0.00 0.00 0.00 29 997.6
20260505001552 26 310 9.7 20.9 0.00 0.00 0.00 28 997.7
20260504234551 26 328 11.3 19.3 0.00 0.00 0.00 29 997.7
20260504233032 26 328 9.7 16.1 0.00 0.00 0.00 27 997.8
20260504231535 26 335 11.3 16.1 0.00 0.00 0.00 26 997.9
20260504230019 26 320 12.9 22.5 0.00 0.00 0.00 24 998.0
20260504224517 26 326 11.3 20.9 0.00 0.00 0.00 27 998.0
20260504223015 26 316 9.7 19.3 0.00 0.00 0.00 28 998.3
20260504221513 26 312 9.7 16.1 0.00 0.00 0.00 30 998.3
20260504220011 26 310 6.4 16.1 0.00 0.00 0.00 30 998.5
20260504214509 26 302 11.3 17.7 0.00 0.00 0.00 26 998.8
20260504213016 26 284 6.4 17.7 0.00 0.00 0.00 31 998.8
20260504211506 26 257 3.2 29.0 0.00 0.00 0.00 30 999.0
20260504210051 26 277 6.4 17.7 0.00 0.00 0.00 30 999.0
20260504204548 26 244 6.4 14.5 0.00 0.00 0.00 32 999.1
20260504203045 26 215 11.3 17.7 0.00 0.00 0.00 34 999.3
20260504201544 25 258 6.4 12.9 0.00 0.00 0.00 36 999.4
20260504200040 25 201 8.0 12.9 0.00 0.00 0.00 37 999.5
20260504194542 25 164 4.8 9.7 0.00 0.00 0.00 40 999.6
20260504193041 24 248 3.2 11.3 0.00 0.00 0.00 42 999.7
20260504191559 23 198 4.8 12.9 0.00 0.00 0.00 40 999.8
20260504190021 23 268 1.6 9.7 0.00 0.00 0.00 41 999.9
20260504184532 23 225 6.4 11.3 0.00 0.00 0.00 43 999.9
20260504183014 22 155 4.8 9.7 0.00 0.00 0.00 42 1000.0